owner,sensor,date,latitude,longitude,air_pressure(mBar),qcFlag 
COMPS,ioos:station:USF.COMPS:C10:1,2019-03-01T00:05:00Z,27.1690,-82.9260,1018.76,1111122 
COMPS,ioos:station:USF.COMPS:C10:1,2019-03-01T00:35:00Z,27.1690,-82.9260,1019.03,1111122 
COMPS,ioos:station:USF.COMPS:C10:1,2019-03-01T01:05:00Z,27.1690,-82.9260,1019.31,1111122 
COMPS,ioos:station:USF.COMPS:C10:1,2019-03-01T01:35:00Z,27.1690,-82.9260,1019.58,1111122 
COMPS,ioos:station:USF.COMPS:C10:1,2019-03-01T02:05:00Z,27.1690,-82.9260,1019.83,1111122 
COMPS,ioos:station:USF.COMPS:C10:1,2019-03-01T02:35:00Z,27.1690,-82.9260,1019.82,1111122 
COMPS,ioos:station:USF.COMPS:C10:1,2019-03-01T03:05:00Z,27.1690,-82.9260,1019.89,1111122 
COMPS,ioos:station:USF.COMPS:C10:1,2019-03-01T03:35:00Z,27.1690,-82.9260,1019.68,1111122 
COMPS,ioos:station:USF.COMPS:C10:1,2019-03-01T04:05:00Z,27.1690,-82.9260,1019.62,1111122 
COMPS,ioos:station:USF.COMPS:C10:1,2019-03-01T04:35:00Z,27.1690,-82.9260,1019.42,1111122 
COMPS,ioos:station:USF.COMPS:C10:1,2019-03-01T05:05:00Z,27.1690,-82.9260,1019.3,1111122 
COMPS,ioos:station:USF.COMPS:C10:1,2019-03-01T05:35:00Z,27.1690,-82.9260,1019.08,1111122 
COMPS,ioos:station:USF.COMPS:C10:1,2019-03-01T06:05:00Z,27.1690,-82.9260,1018.74,1111122 
COMPS,ioos:station:USF.COMPS:C10:1,2019-03-01T06:35:00Z,27.1690,-82.9260,1018.66,1111122 
COMPS,ioos:station:USF.COMPS:C10:1,2019-03-01T07:05:00Z,27.1690,-82.9260,1018.49,1111122 
COMPS,ioos:station:USF.COMPS:C10:1,2019-03-01T07:35:00Z,27.1690,-82.9260,1018.21,1111122 
COMPS,ioos:station:USF.COMPS:C10:1,2019-03-01T08:05:00Z,27.1690,-82.9260,1017.98,1111122 
COMPS,ioos:station:USF.COMPS:C10:1,2019-03-01T08:35:00Z,27.1690,-82.9260,1017.96,1111122 
COMPS,ioos:station:USF.COMPS:C10:1,2019-03-01T09:05:00Z,27.1690,-82.9260,1017.89,1111122 
COMPS,ioos:station:USF.COMPS:C10:1,2019-03-01T09:35:00Z,27.1690,-82.9260,1018.0,1111122 
COMPS,ioos:station:USF.COMPS:C10:1,2019-03-01T10:05:00Z,27.1690,-82.9260,1018.17,1111122 
COMPS,ioos:station:USF.COMPS:C10:1,2019-03-01T10:35:00Z,27.1690,-82.9260,1018.59,1111122 
COMPS,ioos:station:USF.COMPS:C10:1,2019-03-01T11:05:00Z,27.1690,-82.9260,1018.84,1111122 
COMPS,ioos:station:USF.COMPS:C10:1,2019-03-01T11:35:00Z,27.1690,-82.9260,1019.19,1111122 
COMPS,ioos:station:USF.COMPS:C10:1,2019-03-01T12:05:00Z,27.1690,-82.9260,1019.56,1111122 
COMPS,ioos:station:USF.COMPS:C10:1,2019-03-01T12:35:00Z,27.1690,-82.9260,1020.15,1111122 
COMPS,ioos:station:USF.COMPS:C10:1,2019-03-01T13:05:00Z,27.1690,-82.9260,1020.37,1111122 
COMPS,ioos:station:USF.COMPS:C10:1,2019-03-01T13:35:00Z,27.1690,-82.9260,1020.4,1111122 
COMPS,ioos:station:USF.COMPS:C10:1,2019-03-01T14:05:00Z,27.1690,-82.9260,1020.68,1111122 
COMPS,ioos:station:USF.COMPS:C10:1,2019-03-01T14:35:00Z,27.1690,-82.9260,1020.96,1111122 
COMPS,ioos:station:USF.COMPS:C10:1,2019-03-01T15:05:00Z,27.1690,-82.9260,1021.16,1111122 
COMPS,ioos:station:USF.COMPS:C10:1,2019-03-01T15:35:00Z,27.1690,-82.9260,1021.32,1111122 
COMPS,ioos:station:USF.COMPS:C10:1,2019-03-01T16:05:00Z,27.1690,-82.9260,1021.03,1111122 
COMPS,ioos:station:USF.COMPS:C10:1,2019-03-01T16:35:00Z,27.1690,-82.9260,1020.73,1111122 
COMPS,ioos:station:USF.COMPS:C10:1,2019-03-01T17:05:00Z,27.1690,-82.9260,1020.46,1111122 
COMPS,ioos:station:USF.COMPS:C10:1,2019-03-01T17:35:00Z,27.1690,-82.9260,1020.57,1111122 
COMPS,ioos:station:USF.COMPS:C10:1,2019-03-01T18:05:00Z,27.1690,-82.9260,1019.99,1111122 
COMPS,ioos:station:USF.COMPS:C10:1,2019-03-01T18:35:00Z,27.1690,-82.9260,1019.94,1111122 
COMPS,ioos:station:USF.COMPS:C10:1,2019-03-01T19:05:00Z,27.1690,-82.9260,1019.29,1111122 
COMPS,ioos:station:USF.COMPS:C10:1,2019-03-01T19:35:00Z,27.1690,-82.9260,1018.92,1111122 
COMPS,ioos:station:USF.COMPS:C10:1,2019-03-01T20:05:00Z,27.1690,-82.9260,1018.76,1111122 
COMPS,ioos:station:USF.COMPS:C10:1,2019-03-01T20:35:00Z,27.1690,-82.9260,1018.58,1111122 
COMPS,ioos:station:USF.COMPS:C10:1,2019-03-01T21:05:00Z,27.1690,-82.9260,1018.56,1111122 
COMPS,ioos:station:USF.COMPS:C10:1,2019-03-01T21:35:00Z,27.1690,-82.9260,1018.77,1111122 
COMPS,ioos:station:USF.COMPS:C10:1,2019-03-01T22:05:00Z,27.1690,-82.9260,1018.78,1111122 
COMPS,ioos:station:USF.COMPS:C10:1,2019-03-01T22:35:00Z,27.1690,-82.9260,1019.15,1111122 
COMPS,ioos:station:USF.COMPS:C10:1,2019-03-01T23:05:00Z,27.1690,-82.9260,1019.28,1111122 
COMPS,ioos:station:USF.COMPS:C10:1,2019-03-01T23:35:00Z,27.1690,-82.9260,1019.36,1111122 
COMPS,ioos:station:USF.COMPS:C10:1,2019-03-02T00:05:00Z,27.1690,-82.9260,1019.25,1111122 
COMPS,ioos:station:USF.COMPS:C10:1,2019-03-02T00:35:00Z,27.1690,-82.9260,1019.63,1111122 
COMPS,ioos:station:USF.COMPS:C10:1,2019-03-02T01:05:00Z,27.1690,-82.9260,1020.15,1111122 
COMPS,ioos:station:USF.COMPS:C10:1,2019-03-02T01:35:00Z,27.1690,-82.9260,1020.45,1111122 
COMPS,ioos:station:USF.COMPS:C10:1,2019-03-02T02:05:00Z,27.1690,-82.9260,1020.82,1111122 
COMPS,ioos:station:USF.COMPS:C10:1,2019-03-02T02:35:00Z,27.1690,-82.9260,1021.21,1111122 
COMPS,ioos:station:USF.COMPS:C10:1,2019-03-02T03:05:00Z,27.1690,-82.9260,1020.98,1111122 
COMPS,ioos:station:USF.COMPS:C10:1,2019-03-02T03:35:00Z,27.1690,-82.9260,1020.54,1111122 
COMPS,ioos:station:USF.COMPS:C10:1,2019-03-02T04:05:00Z,27.1690,-82.9260,1020.45,1111122 
COMPS,ioos:station:USF.COMPS:C10:1,2019-03-02T04:35:00Z,27.1690,-82.9260,1020.59,1111122 
COMPS,ioos:station:USF.COMPS:C10:1,2019-03-02T05:05:00Z,27.1690,-82.9260,1020.54,1111122 
COMPS,ioos:station:USF.COMPS:C10:1,2019-03-02T05:35:00Z,27.1690,-82.9260,1020.28,1111122 
COMPS,ioos:station:USF.COMPS:C10:1,2019-03-02T06:05:00Z,27.1690,-82.9260,1020.04,1111122 
COMPS,ioos:station:USF.COMPS:C10:1,2019-03-02T06:35:00Z,27.1690,-82.9260,1019.98,1111122 
COMPS,ioos:station:USF.COMPS:C10:1,2019-03-02T07:05:00Z,27.1690,-82.9260,1019.73,1111122 
COMPS,ioos:station:USF.COMPS:C10:1,2019-03-02T07:35:00Z,27.1690,-82.9260,1019.41,1111122 
COMPS,ioos:station:USF.COMPS:C10:1,2019-03-02T08:05:00Z,27.1690,-82.9260,1019.3,1111122 
COMPS,ioos:station:USF.COMPS:C10:1,2019-03-02T08:35:00Z,27.1690,-82.9260,1019.11,1111122 
COMPS,ioos:station:USF.COMPS:C10:1,2019-03-02T09:05:00Z,27.1690,-82.9260,1018.83,1111122 
COMPS,ioos:station:USF.COMPS:C10:1,2019-03-02T09:35:00Z,27.1690,-82.9260,1018.9,1111122 
COMPS,ioos:station:USF.COMPS:C10:1,2019-03-02T10:05:00Z,27.1690,-82.9260,1019.06,1111122 
COMPS,ioos:station:USF.COMPS:C10:1,2019-03-02T10:35:00Z,27.1690,-82.9260,1019.52,1111122 
COMPS,ioos:station:USF.COMPS:C10:1,2019-03-02T11:05:00Z,27.1690,-82.9260,1019.74,1111122 
COMPS,ioos:station:USF.COMPS:C10:1,2019-03-02T11:35:00Z,27.1690,-82.9260,1020.07,1111122 
COMPS,ioos:station:USF.COMPS:C10:1,2019-03-02T12:05:00Z,27.1690,-82.9260,1019.99,1111122 
COMPS,ioos:station:USF.COMPS:C10:1,2019-03-02T12:35:00Z,27.1690,-82.9260,1020.06,1111122 
COMPS,ioos:station:USF.COMPS:C10:1,2019-03-02T13:05:00Z,27.1690,-82.9260,1020.19,1111122 
COMPS,ioos:station:USF.COMPS:C10:1,2019-03-02T13:35:00Z,27.1690,-82.9260,1020.79,1111122 
COMPS,ioos:station:USF.COMPS:C10:1,2019-03-02T14:05:00Z,27.1690,-82.9260,1021.04,1111122 
COMPS,ioos:station:USF.COMPS:C10:1,2019-03-02T14:35:00Z,27.1690,-82.9260,1020.96,1111122 
COMPS,ioos:station:USF.COMPS:C10:1,2019-03-02T15:05:00Z,27.1690,-82.9260,1021.31,1111122 
COMPS,ioos:station:USF.COMPS:C10:1,2019-03-02T15:35:00Z,27.1690,-82.9260,1021.2,1111122 
COMPS,ioos:station:USF.COMPS:C10:1,2019-03-02T16:05:00Z,27.1690,-82.9260,1021.19,1111122 
COMPS,ioos:station:USF.COMPS:C10:1,2019-03-02T16:35:00Z,27.1690,-82.9260,1020.93,1111122 
COMPS,ioos:station:USF.COMPS:C10:1,2019-03-02T17:05:00Z,27.1690,-82.9260,1021.01,1111122 
COMPS,ioos:station:USF.COMPS:C10:1,2019-03-02T17:35:00Z,27.1690,-82.9260,1020.8,1111122 
COMPS,ioos:station:USF.COMPS:C10:1,2019-03-02T18:05:00Z,27.1690,-82.9260,1020.29,1111122 
COMPS,ioos:station:USF.COMPS:C10:1,2019-03-02T18:35:00Z,27.1690,-82.9260,1019.78,1111122 
COMPS,ioos:station:USF.COMPS:C10:1,2019-03-02T19:05:00Z,27.1690,-82.9260,1019.14,1111122 
COMPS,ioos:station:USF.COMPS:C10:1,2019-03-02T19:35:00Z,27.1690,-82.9260,1018.79,1111122 
COMPS,ioos:station:USF.COMPS:C10:1,2019-03-02T20:05:00Z,27.1690,-82.9260,1018.58,1111122 
COMPS,ioos:station:USF.COMPS:C10:1,2019-03-02T20:35:00Z,27.1690,-82.9260,1018.53,1111122 
COMPS,ioos:station:USF.COMPS:C10:1,2019-03-02T21:05:00Z,27.1690,-82.9260,1018.37,1111122 
COMPS,ioos:station:USF.COMPS:C10:1,2019-03-02T21:35:00Z,27.1690,-82.9260,1018.32,1111122 
COMPS,ioos:station:USF.COMPS:C10:1,2019-03-02T22:05:00Z,27.1690,-82.9260,1018.6,1111122 
COMPS,ioos:station:USF.COMPS:C10:1,2019-03-02T22:35:00Z,27.1690,-82.9260,1018.77,1111122 
COMPS,ioos:station:USF.COMPS:C10:1,2019-03-02T23:05:00Z,27.1690,-82.9260,1018.63,1111122 
COMPS,ioos:station:USF.COMPS:C10:1,2019-03-02T23:35:00Z,27.1690,-82.9260,1018.7,1111122 
COMPS,ioos:station:USF.COMPS:C10:1,2019-03-03T00:05:00Z,27.1690,-82.9260,1018.75,1111122 
COMPS,ioos:station:USF.COMPS:C10:1,2019-03-03T00:35:00Z,27.1690,-82.9260,1019.1,1111122 
COMPS,ioos:station:USF.COMPS:C10:1,2019-03-03T01:05:00Z,27.1690,-82.9260,1019.16,1111122 
COMPS,ioos:station:USF.COMPS:C10:1,2019-03-03T01:35:00Z,27.1690,-82.9260,1019.49,1111122 
COMPS,ioos:station:USF.COMPS:C10:1,2019-03-03T02:05:00Z,27.1690,-82.9260,1019.39,1111122 
COMPS,ioos:station:USF.COMPS:C10:1,2019-03-03T02:35:00Z,27.1690,-82.9260,1019.22,1111122 
COMPS,ioos:station:USF.COMPS:C10:1,2019-03-03T03:05:00Z,27.1690,-82.9260,1019.46,1111122 
COMPS,ioos:station:USF.COMPS:C10:1,2019-03-03T03:35:00Z,27.1690,-82.9260,1019.59,1111122 
COMPS,ioos:station:USF.COMPS:C10:1,2019-03-03T04:05:00Z,27.1690,-82.9260,1019.42,1111122 
COMPS,ioos:station:USF.COMPS:C10:1,2019-03-03T04:35:00Z,27.1690,-82.9260,1019.24,1111122 
COMPS,ioos:station:USF.COMPS:C10:1,2019-03-03T05:05:00Z,27.1690,-82.9260,1018.89,1111122 
COMPS,ioos:station:USF.COMPS:C10:1,2019-03-03T05:35:00Z,27.1690,-82.9260,1018.39,1111122 
COMPS,ioos:station:USF.COMPS:C10:1,2019-03-03T06:05:00Z,27.1690,-82.9260,1018.36,1111122 
COMPS,ioos:station:USF.COMPS:C10:1,2019-03-03T06:35:00Z,27.1690,-82.9260,1018.07,1111122 
COMPS,ioos:station:USF.COMPS:C10:1,2019-03-03T07:05:00Z,27.1690,-82.9260,1017.73,1111122 
COMPS,ioos:station:USF.COMPS:C10:1,2019-03-03T07:35:00Z,27.1690,-82.9260,1017.36,1111122 
COMPS,ioos:station:USF.COMPS:C10:1,2019-03-03T08:05:00Z,27.1690,-82.9260,1017.2,1111122 
COMPS,ioos:station:USF.COMPS:C10:1,2019-03-03T08:35:00Z,27.1690,-82.9260,1017.05,1111122 
COMPS,ioos:station:USF.COMPS:C10:1,2019-03-03T09:05:00Z,27.1690,-82.9260,1016.87,1111122 
COMPS,ioos:station:USF.COMPS:C10:1,2019-03-03T09:35:00Z,27.1690,-82.9260,1016.63,1111122 
COMPS,ioos:station:USF.COMPS:C10:1,2019-03-03T10:05:00Z,27.1690,-82.9260,1016.73,1111122 
COMPS,ioos:station:USF.COMPS:C10:1,2019-03-03T10:35:00Z,27.1690,-82.9260,1016.66,1111122 
COMPS,ioos:station:USF.COMPS:C10:1,2019-03-03T11:05:00Z,27.1690,-82.9260,1016.84,1111122 
COMPS,ioos:station:USF.COMPS:C10:1,2019-03-03T11:35:00Z,27.1690,-82.9260,1017.13,1111122 
COMPS,ioos:station:USF.COMPS:C10:1,2019-03-03T12:05:00Z,27.1690,-82.9260,1017.39,1111122 
COMPS,ioos:station:USF.COMPS:C10:1,2019-03-03T12:35:00Z,27.1690,-82.9260,1017.65,1111122 
COMPS,ioos:station:USF.COMPS:C10:1,2019-03-03T13:05:00Z,27.1690,-82.9260,1017.62,1111122 
COMPS,ioos:station:USF.COMPS:C10:1,2019-03-03T13:35:00Z,27.1690,-82.9260,1017.89,1111122 
COMPS,ioos:station:USF.COMPS:C10:1,2019-03-03T14:05:00Z,27.1690,-82.9260,1017.96,1111122 
COMPS,ioos:station:USF.COMPS:C10:1,2019-03-03T14:35:00Z,27.1690,-82.9260,1017.96,1111122 
COMPS,ioos:station:USF.COMPS:C10:1,2019-03-03T15:05:00Z,27.1690,-82.9260,1017.91,1111122 
COMPS,ioos:station:USF.COMPS:C10:1,2019-03-03T15:35:00Z,27.1690,-82.9260,1017.56,1111122 
COMPS,ioos:station:USF.COMPS:C10:1,2019-03-03T16:05:00Z,27.1690,-82.9260,1017.6,1111122 
COMPS,ioos:station:USF.COMPS:C10:1,2019-03-03T16:35:00Z,27.1690,-82.9260,1017.14,1111122 
COMPS,ioos:station:USF.COMPS:C10:1,2019-03-03T17:05:00Z,27.1690,-82.9260,1016.76,1111122 
COMPS,ioos:station:USF.COMPS:C10:1,2019-03-03T17:35:00Z,27.1690,-82.9260,1016.25,1111122 
COMPS,ioos:station:USF.COMPS:C10:1,2019-03-03T18:05:00Z,27.1690,-82.9260,1015.73,1111122 
COMPS,ioos:station:USF.COMPS:C10:1,2019-03-03T18:35:00Z,27.1690,-82.9260,1015.26,1111122 
COMPS,ioos:station:USF.COMPS:C10:1,2019-03-03T19:05:00Z,27.1690,-82.9260,1014.73,1111122 
COMPS,ioos:station:USF.COMPS:C10:1,2019-03-03T19:35:00Z,27.1690,-82.9260,1014.22,1111122 
COMPS,ioos:station:USF.COMPS:C10:1,2019-03-03T20:05:00Z,27.1690,-82.9260,1013.97,1111122 
COMPS,ioos:station:USF.COMPS:C10:1,2019-03-03T20:35:00Z,27.1690,-82.9260,1013.64,1111122 
COMPS,ioos:station:USF.COMPS:C10:1,2019-03-03T21:05:00Z,27.1690,-82.9260,1013.37,1111122 
COMPS,ioos:station:USF.COMPS:C10:1,2019-03-03T21:35:00Z,27.1690,-82.9260,1013.07,1111122 
COMPS,ioos:station:USF.COMPS:C10:1,2019-03-03T22:05:00Z,27.1690,-82.9260,1013.16,1111122 
COMPS,ioos:station:USF.COMPS:C10:1,2019-03-03T22:35:00Z,27.1690,-82.9260,1013.14,1111122 
COMPS,ioos:station:USF.COMPS:C10:1,2019-03-03T23:05:00Z,27.1690,-82.9260,1013.17,1111122 
COMPS,ioos:station:USF.COMPS:C10:1,2019-03-03T23:35:00Z,27.1690,-82.9260,1013.16,1111122 
COMPS,ioos:station:USF.COMPS:C10:1,2019-03-04T00:05:00Z,27.1690,-82.9260,1013.23,1111122 
COMPS,ioos:station:USF.COMPS:C10:1,2019-03-04T00:35:00Z,27.1690,-82.9260,1013.37,1111122 
COMPS,ioos:station:USF.COMPS:C10:1,2019-03-04T01:05:00Z,27.1690,-82.9260,1013.7,1111122 
COMPS,ioos:station:USF.COMPS:C10:1,2019-03-04T01:35:00Z,27.1690,-82.9260,1013.99,1111122 
COMPS,ioos:station:USF.COMPS:C10:1,2019-03-04T02:05:00Z,27.1690,-82.9260,1014.17,1111122 
COMPS,ioos:station:USF.COMPS:C10:1,2019-03-04T02:35:00Z,27.1690,-82.9260,1014.08,1111122 
COMPS,ioos:station:USF.COMPS:C10:1,2019-03-04T03:05:00Z,27.1690,-82.9260,1014.06,1111122 
COMPS,ioos:station:USF.COMPS:C10:1,2019-03-04T03:35:00Z,27.1690,-82.9260,1014.27,1111122 
COMPS,ioos:station:USF.COMPS:C10:1,2019-03-04T04:05:00Z,27.1690,-82.9260,1014.33,1111122 
COMPS,ioos:station:USF.COMPS:C10:1,2019-03-04T04:35:00Z,27.1690,-82.9260,1014.24,1111122 
COMPS,ioos:station:USF.COMPS:C10:1,2019-03-04T05:05:00Z,27.1690,-82.9260,1014.04,1111122 
COMPS,ioos:station:USF.COMPS:C10:1,2019-03-04T05:35:00Z,27.1690,-82.9260,1013.85,1111122 
COMPS,ioos:station:USF.COMPS:C10:1,2019-03-04T06:05:00Z,27.1690,-82.9260,1013.54,1111122 
COMPS,ioos:station:USF.COMPS:C10:1,2019-03-04T06:35:00Z,27.1690,-82.9260,1013.43,1111122 
COMPS,ioos:station:USF.COMPS:C10:1,2019-03-04T07:05:00Z,27.1690,-82.9260,1013.1,1111122 
COMPS,ioos:station:USF.COMPS:C10:1,2019-03-04T07:35:00Z,27.1690,-82.9260,1012.97,1111122 
COMPS,ioos:station:USF.COMPS:C10:1,2019-03-04T08:05:00Z,27.1690,-82.9260,1012.79,1111122 
COMPS,ioos:station:USF.COMPS:C10:1,2019-03-04T08:35:00Z,27.1690,-82.9260,1012.74,1111122 
COMPS,ioos:station:USF.COMPS:C10:1,2019-03-04T09:05:00Z,27.1690,-82.9260,1012.87,1111122 
COMPS,ioos:station:USF.COMPS:C10:1,2019-03-04T09:35:00Z,27.1690,-82.9260,1013.02,1111122 
COMPS,ioos:station:USF.COMPS:C10:1,2019-03-04T10:05:00Z,27.1690,-82.9260,1013.35,1111122 
COMPS,ioos:station:USF.COMPS:C10:1,2019-03-04T10:35:00Z,27.1690,-82.9260,1013.65,1111122 
COMPS,ioos:station:USF.COMPS:C10:1,2019-03-04T11:05:00Z,27.1690,-82.9260,1013.82,1111122 
COMPS,ioos:station:USF.COMPS:C10:1,2019-03-04T11:35:00Z,27.1690,-82.9260,1014.21,1111122 
COMPS,ioos:station:USF.COMPS:C10:1,2019-03-04T12:05:00Z,27.1690,-82.9260,1014.5,1111122 
COMPS,ioos:station:USF.COMPS:C10:1,2019-03-04T12:35:00Z,27.1690,-82.9260,1014.75,1111122 
COMPS,ioos:station:USF.COMPS:C10:1,2019-03-04T13:05:00Z,27.1690,-82.9260,1015.05,1111122 
COMPS,ioos:station:USF.COMPS:C10:1,2019-03-04T13:35:00Z,27.1690,-82.9260,1015.35,1111122 
COMPS,ioos:station:USF.COMPS:C10:1,2019-03-04T14:05:00Z,27.1690,-82.9260,1015.55,1111122 
COMPS,ioos:station:USF.COMPS:C10:1,2019-03-04T14:35:00Z,27.1690,-82.9260,1015.72,1111122 
COMPS,ioos:station:USF.COMPS:C10:1,2019-03-04T15:05:00Z,27.1690,-82.9260,1015.88,1111122 
COMPS,ioos:station:USF.COMPS:C10:1,2019-03-04T15:35:00Z,27.1690,-82.9260,1015.81,1111122 
COMPS,ioos:station:USF.COMPS:C10:1,2019-03-04T16:05:00Z,27.1690,-82.9260,1015.86,1111122 
COMPS,ioos:station:USF.COMPS:C10:1,2019-03-04T16:35:00Z,27.1690,-82.9260,1015.88,1111122 
COMPS,ioos:station:USF.COMPS:C10:1,2019-03-04T17:05:00Z,27.1690,-82.9260,1015.94,1111122 
COMPS,ioos:station:USF.COMPS:C10:1,2019-03-04T17:35:00Z,27.1690,-82.9260,1015.78,1111122 
COMPS,ioos:station:USF.COMPS:C10:1,2019-03-04T18:05:00Z,27.1690,-82.9260,1015.67,1111122 
COMPS,ioos:station:USF.COMPS:C10:1,2019-03-04T18:35:00Z,27.1690,-82.9260,1015.31,1111122 
COMPS,ioos:station:USF.COMPS:C10:1,2019-03-04T19:05:00Z,27.1690,-82.9260,1015.32,1111122 
COMPS,ioos:station:USF.COMPS:C10:1,2019-03-04T19:35:00Z,27.1690,-82.9260,1015.25,1111122 
COMPS,ioos:station:USF.COMPS:C10:1,2019-03-04T20:05:00Z,27.1690,-82.9260,1015.23,1111122 
COMPS,ioos:station:USF.COMPS:C10:1,2019-03-04T20:35:00Z,27.1690,-82.9260,1015.13,1111122 
COMPS,ioos:station:USF.COMPS:C10:1,2019-03-04T21:05:00Z,27.1690,-82.9260,1015.27,1111122 
COMPS,ioos:station:USF.COMPS:C10:1,2019-03-04T21:35:00Z,27.1690,-82.9260,1015.29,1111122 
COMPS,ioos:station:USF.COMPS:C10:1,2019-03-04T22:05:00Z,27.1690,-82.9260,1015.42,1111122 
COMPS,ioos:station:USF.COMPS:C10:1,2019-03-04T22:35:00Z,27.1690,-82.9260,1015.91,1111122 
COMPS,ioos:station:USF.COMPS:C10:1,2019-03-04T23:05:00Z,27.1690,-82.9260,1016.14,1111122 
COMPS,ioos:station:USF.COMPS:C10:1,2019-03-04T23:35:00Z,27.1690,-82.9260,1016.4,1111122 
COMPS,ioos:station:USF.COMPS:C10:1,2019-03-05T02:05:00Z,27.1690,-82.9260,1017.37,1111122 
COMPS,ioos:station:USF.COMPS:C10:1,2019-03-05T02:35:00Z,27.1690,-82.9260,1017.47,1111122 
COMPS,ioos:station:USF.COMPS:C10:1,2019-03-05T03:05:00Z,27.1690,-82.9260,1017.7,1111122 
COMPS,ioos:station:USF.COMPS:C10:1,2019-03-05T03:35:00Z,27.1690,-82.9260,1017.76,1111122 
COMPS,ioos:station:USF.COMPS:C10:1,2019-03-05T04:05:00Z,27.1690,-82.9260,1017.85,1111122 
COMPS,ioos:station:USF.COMPS:C10:1,2019-03-05T04:35:00Z,27.1690,-82.9260,1017.94,1111122 
COMPS,ioos:station:USF.COMPS:C10:1,2019-03-05T05:05:00Z,27.1690,-82.9260,1017.85,1111122 
COMPS,ioos:station:USF.COMPS:C10:1,2019-03-05T05:35:00Z,27.1690,-82.9260,1017.37,1111122 
COMPS,ioos:station:USF.COMPS:C10:1,2019-03-05T06:05:00Z,27.1690,-82.9260,1017.16,1111122 
COMPS,ioos:station:USF.COMPS:C10:1,2019-03-05T06:35:00Z,27.1690,-82.9260,1016.81,1111122 
COMPS,ioos:station:USF.COMPS:C10:1,2019-03-05T07:05:00Z,27.1690,-82.9260,1016.96,1111122 
COMPS,ioos:station:USF.COMPS:C10:1,2019-03-05T07:35:00Z,27.1690,-82.9260,1016.9,1111122 
COMPS,ioos:station:USF.COMPS:C10:1,2019-03-05T08:05:00Z,27.1690,-82.9260,1016.59,1111122 
COMPS,ioos:station:USF.COMPS:C10:1,2019-03-05T08:35:00Z,27.1690,-82.9260,1016.1,1111122 
COMPS,ioos:station:USF.COMPS:C10:1,2019-03-05T09:05:00Z,27.1690,-82.9260,1016.32,1111122 
COMPS,ioos:station:USF.COMPS:C10:1,2019-03-05T09:35:00Z,27.1690,-82.9260,1016.12,1111122 
COMPS,ioos:station:USF.COMPS:C10:1,2019-03-05T10:05:00Z,27.1690,-82.9260,1016.55,1111122 
COMPS,ioos:station:USF.COMPS:C10:1,2019-03-05T10:35:00Z,27.1690,-82.9260,1016.88,1111122 
COMPS,ioos:station:USF.COMPS:C10:1,2019-03-05T11:05:00Z,27.1690,-82.9260,1017.14,1111122 
COMPS,ioos:station:USF.COMPS:C10:1,2019-03-05T11:35:00Z,27.1690,-82.9260,1016.94,1111122 
COMPS,ioos:station:USF.COMPS:C10:1,2019-03-05T12:05:00Z,27.1690,-82.9260,1017.61,1111122 
COMPS,ioos:station:USF.COMPS:C10:1,2019-03-05T12:35:00Z,27.1690,-82.9260,1017.89,1111122 
COMPS,ioos:station:USF.COMPS:C10:1,2019-03-05T13:05:00Z,27.1690,-82.9260,1018.72,1111122 
COMPS,ioos:station:USF.COMPS:C10:1,2019-03-05T13:35:00Z,27.1690,-82.9260,1019.3,1111122 
COMPS,ioos:station:USF.COMPS:C10:1,2019-03-05T14:05:00Z,27.1690,-82.9260,1019.67,1111122 
COMPS,ioos:station:USF.COMPS:C10:1,2019-03-05T14:35:00Z,27.1690,-82.9260,1020.23,1111122 
COMPS,ioos:station:USF.COMPS:C10:1,2019-03-05T15:05:00Z,27.1690,-82.9260,1020.25,1111122 
COMPS,ioos:station:USF.COMPS:C10:1,2019-03-05T15:35:00Z,27.1690,-82.9260,1020.78,1111122 
COMPS,ioos:station:USF.COMPS:C10:1,2019-03-05T16:05:00Z,27.1690,-82.9260,1021.18,1111122 
COMPS,ioos:station:USF.COMPS:C10:1,2019-03-05T16:35:00Z,27.1690,-82.9260,1020.83,1111122 
COMPS,ioos:station:USF.COMPS:C10:1,2019-03-05T17:05:00Z,27.1690,-82.9260,1020.51,1111122 
COMPS,ioos:station:USF.COMPS:C10:1,2019-03-05T17:35:00Z,27.1690,-82.9260,1020.23,1111122 
COMPS,ioos:station:USF.COMPS:C10:1,2019-03-05T18:05:00Z,27.1690,-82.9260,1019.98,1111122 
COMPS,ioos:station:USF.COMPS:C10:1,2019-03-05T18:35:00Z,27.1690,-82.9260,1019.69,1111122 
COMPS,ioos:station:USF.COMPS:C10:1,2019-03-05T19:05:00Z,27.1690,-82.9260,1019.22,1111122 
COMPS,ioos:station:USF.COMPS:C10:1,2019-03-05T19:35:00Z,27.1690,-82.9260,1019.34,1111122 
COMPS,ioos:station:USF.COMPS:C10:1,2019-03-05T20:05:00Z,27.1690,-82.9260,1019.56,1111122 
COMPS,ioos:station:USF.COMPS:C10:1,2019-03-05T20:35:00Z,27.1690,-82.9260,1019.51,1111122 
COMPS,ioos:station:USF.COMPS:C10:1,2019-03-05T21:05:00Z,27.1690,-82.9260,1019.82,1111122 
COMPS,ioos:station:USF.COMPS:C10:1,2019-03-05T21:35:00Z,27.1690,-82.9260,1019.93,1111122 
COMPS,ioos:station:USF.COMPS:C10:1,2019-03-05T22:05:00Z,27.1690,-82.9260,1019.89,1111122 
COMPS,ioos:station:USF.COMPS:C10:1,2019-03-05T22:35:00Z,27.1690,-82.9260,1020.13,1111122 
COMPS,ioos:station:USF.COMPS:C10:1,2019-03-05T23:05:00Z,27.1690,-82.9260,1020.32,1111122 
COMPS,ioos:station:USF.COMPS:C10:1,2019-03-05T23:35:00Z,27.1690,-82.9260,1020.85,1111122 
COMPS,ioos:station:USF.COMPS:C10:1,2019-03-06T01:05:00Z,27.1690,-82.9260,1022.21,1111122 
COMPS,ioos:station:USF.COMPS:C10:1,2019-03-06T01:35:00Z,27.1690,-82.9260,1022.61,1111122 
COMPS,ioos:station:USF.COMPS:C10:1,2019-03-06T02:05:00Z,27.1690,-82.9260,1023.0,1111122 
COMPS,ioos:station:USF.COMPS:C10:1,2019-03-06T04:05:00Z,27.1690,-82.9260,1023.78,1111122 
COMPS,ioos:station:USF.COMPS:C10:1,2019-03-06T04:35:00Z,27.1690,-82.9260,1023.6,1111122 
COMPS,ioos:station:USF.COMPS:C10:1,2019-03-06T05:05:00Z,27.1690,-82.9260,1023.63,1111122 
COMPS,ioos:station:USF.COMPS:C10:1,2019-03-06T05:35:00Z,27.1690,-82.9260,1023.57,1111122 
COMPS,ioos:station:USF.COMPS:C10:1,2019-03-06T10:05:00Z,27.1690,-82.9260,1024.29,1111122 
COMPS,ioos:station:USF.COMPS:C10:1,2019-03-06T10:35:00Z,27.1690,-82.9260,1024.63,1111122 
COMPS,ioos:station:USF.COMPS:C10:1,2019-03-06T11:05:00Z,27.1690,-82.9260,1025.0,1111122 
COMPS,ioos:station:USF.COMPS:C10:1,2019-03-06T11:35:00Z,27.1690,-82.9260,1025.07,1111122 
COMPS,ioos:station:USF.COMPS:C10:1,2019-03-06T12:05:00Z,27.1690,-82.9260,1025.69,1111122 
COMPS,ioos:station:USF.COMPS:C10:1,2019-03-06T12:35:00Z,27.1690,-82.9260,1026.21,1111122 
COMPS,ioos:station:USF.COMPS:C10:1,2019-03-06T13:05:00Z,27.1690,-82.9260,1026.37,1111122 
COMPS,ioos:station:USF.COMPS:C10:1,2019-03-06T13:35:00Z,27.1690,-82.9260,1026.73,1111122 
COMPS,ioos:station:USF.COMPS:C10:1,2019-03-06T14:05:00Z,27.1690,-82.9260,1026.98,1111122 
COMPS,ioos:station:USF.COMPS:C10:1,2019-03-06T14:35:00Z,27.1690,-82.9260,1027.48,1111122 
COMPS,ioos:station:USF.COMPS:C10:1,2019-03-06T16:05:00Z,27.1690,-82.9260,1028.05,1111122 
COMPS,ioos:station:USF.COMPS:C10:1,2019-03-06T16:35:00Z,27.1690,-82.9260,1028.04,1111122 
COMPS,ioos:station:USF.COMPS:C10:1,2019-03-06T18:05:00Z,27.1690,-82.9260,1027.48,1111122 
COMPS,ioos:station:USF.COMPS:C10:1,2019-03-06T18:35:00Z,27.1690,-82.9260,1027.03,1111122 
COMPS,ioos:station:USF.COMPS:C10:1,2019-03-06T19:05:00Z,27.1690,-82.9260,1026.51,1111122 
COMPS,ioos:station:USF.COMPS:C10:1,2019-03-06T19:35:00Z,27.1690,-82.9260,1026.21,1111122 
COMPS,ioos:station:USF.COMPS:C10:1,2019-03-06T20:05:00Z,27.1690,-82.9260,1025.86,1111122 
COMPS,ioos:station:USF.COMPS:C10:1,2019-03-06T20:35:00Z,27.1690,-82.9260,1025.67,1111122 
COMPS,ioos:station:USF.COMPS:C10:1,2019-03-06T21:05:00Z,27.1690,-82.9260,1025.45,1111122 
COMPS,ioos:station:USF.COMPS:C10:1,2019-03-06T21:35:00Z,27.1690,-82.9260,1025.53,1111122 
COMPS,ioos:station:USF.COMPS:C10:1,2019-03-06T22:05:00Z,27.1690,-82.9260,1025.4,1111122 
COMPS,ioos:station:USF.COMPS:C10:1,2019-03-06T22:35:00Z,27.1690,-82.9260,1025.89,1111122 
COMPS,ioos:station:USF.COMPS:C10:1,2019-03-07T00:05:00Z,27.1690,-82.9260,1025.71,1111122 